Dewpoint
45 45 47 50 58 59 60 62 62 61 61 60 59 58 56 55 55 53 53 52 52 52 51 50 50 49 48 48 47 45 42 40
49 50 52 55 60 60 60 61 60 60 59 58 56 55 54 54 53 52 51 51 49 50 50 49 49 46 45 43 42 42 41 41
52 52 55 59 60 61 61 60 59 60 59 57 57 54 54 52 51 51 50 49 48 48 48 46 45 43 43 43 42 41 40 40
51 53 56 60 60 61 60 60 60 60 59 57 55 54 51 49 49 49 48 47 45 44 43 44 44 44 43 43 41 40 37 38
51 53 57 58 59 60 60 60 60 59 58 53 53 49 47 49 50 49 47 47 44 41 41 43 44 44 43 43 39 40 39 37
51 56 57 58 59 60 60 60 58 54 52 53 52 49 50 48 47 45 42 44 43 40 41 43 42 42 42 42 41 39 39 38
50 56 57 56 59 60 60 58 51 52 51 52 52 49 45 43 42 41 42 41 40 40 39 39 39 39 39 40 41 40 38 38
50 52 54 56 57 55 53 49 48 50 51 48 46 43 44 42 42 40 37 36 37 37 36 37 37 37 39 40 40 39 39 38
48 49 51 53 51 51 50 47 46 47 46 44 44 43 42 40 40 35 37 35 35 35 35 36 36 36 37 38 39 40 40 38
45 45 48 49 49 50 49 46 45 45 43 43 43 41 38 38 35 38 38 35 32 36 36 36 36 36 37 37 38 39 39 38
42 42 46 47 48 49 51 48 45 42 43 44 41 40 38 35 37 38 35 34 34 35 35 35 35 35 35 35 37 38 38 38
42 42 44 46 47 48 48 47 42 41 40 41 40 38 39 36 38 37 35 35 34 34 34 33 33 33 34 34 34 34 35 36
42 42 43 45 46 46 47 46 41 40 40 38 38 39 36 36 36 36 36 35 36 34 34 32 33 33 33 33 33 34 34 33
42 42 43 44 45 46 46 45 42 39 35 35 35 36 36 34 35 35 34 35 35 35 33 33 33 33 32 32 32 32 33 33
40 41 43 44 45 45 44 44 42 37 35 34 36 36 36 35 34 34 34 35 34 34 33 34 34 32 31 31 30 31 31 29
39 41 43 44 45 45 43 43 39 39 36 35 34 37 33 34 34 34 34 36 34 33 33 34 33 32 28 31 28 27 28 26
37 40 42 44 44 43 43 40 39 39 36 36 34 33 33 34 33 33 34 35 33 32 33 33 33 28 31 29 26 24 25 25
34 39 41 44 45 44 42 38 39 37 37 34 34 32 32 32 30 29 30 32 33 33 33 32 32 29 30 27 24 22 24 25
35 36 40 42 44 42 41 35 36 38 34 32 31 30 28 27 29 30 31 32 32 33 32 32 32 29 30 27 24 22 24 24
Lifted_Index
-1 -1 -1 -2 -3 -3 -3 -3 -2 -1 -1 -0 0 1 2 3 3 4 5 5 5 5 5 5 5 4 5 5 5 6 7 7
-2 -2 -2 -3 -4 -3 -3 -2 -2 -1 -1 -0 0 2 2 3 4 4 5 6 6 6 6 5 5 5 6 6 7 7 7 7
-3 -3 -3 -4 -4 -3 -3 -2 -2 -2 -1 -0 1 2 3 4 5 5 6 6 6 6 6 6 6 7 7 7 8 8 8 8
-4 -4 -4 -4 -4 -3 -3 -3 -2 -2 -1 -0 1 2 3 4 5 6 6 7 7 7 7 7 7 7 8 8 8 8 9 9
-4 -4 -4 -4 -4 -3 -3 -3 -2 -1 -0 1 2 3 4 4 5 6 6 7 8 8 8 8 8 8 8 8 8 8 9 9
-4 -4 -4 -3 -3 -3 -3 -2 -1 0 1 2 3 3 4 4 5 6 7 8 8 9 9 9 9 9 9 9 8 8 9 9
-3 -3 -3 -3 -3 -2 -2 -1 1 2 2 3 3 4 4 5 6 7 8 9 9 10 10 10 11 10 10 9 8 8 9 9
-3 -3 -2 -2 -1 -1 0 1 2 3 3 3 4 4 5 6 6 7 8 9 10 11 11 11 11 11 10 9 9 8 9 9
-1 -1 -1 -1 -0 1 2 3 3 4 4 5 5 6 6 7 7 8 9 10 11 11 11 11 11 11 11 10 9 9 9 9
0 0 0 1 1 2 3 3 4 5 5 6 6 7 7 7 8 8 10 10 11 11 11 12 11 11 11 11 10 9 10 10
1 1 1 2 2 2 3 3 4 5 6 6 7 7 7 8 9 10 10 11 11 11 11 12 12 12 11 11 11 10 10 10
1 1 2 2 2 2 2 3 4 5 6 6 6 6 7 8 10 10 10 10 11 11 11 12 12 12 11 11 11 11 11 11
1 1 1 2 2 2 2 3 4 5 6 6 6 6 7 9 10 10 10 10 10 11 11 12 12 12 11 11 12 11 11 11
0 1 1 1 1 2 2 3 4 5 6 6 6 7 8 9 9 10 10 10 10 10 11 11 11 11 11 11 11 11 11 11
-0 -0 0 0 1 1 2 3 4 5 6 6 7 8 9 9 9 9 10 10 10 10 11 11 11 11 11 11 11 11 12 12
-1 -1 -1 -0 -0 1 1 3 4 5 6 6 7 8 9 9 9 10 10 10 10 11 11 11 11 11 10 11 11 12 12 12
-0 -1 -1 -1 -1 0 1 2 4 5 6 7 8 9 9 10 10 11 11 11 11 11 11 11 11 11 10 10 11 12 12 12
1 0 -0 -1 -1 -0 1 2 4 6 7 8 9 9 10 11 11 12 11 11 11 11 11 11 11 10 10 10 11 11 12 11
2 1 0 -1 -1 -0 1 3 5 6 7 8 9 10 11 11 12 12 12 12 11 11 11 11 10 10 10 10 11 11 11 11